N7NKE Weather Reports


time (UTC)temp
C
wind
direction
speed
KPH
gust
KPH
rain 1hr
cm
rain 24hr
cm
rain mn
cm
humidity
%
barometer
mb
20260904045504 13 236 1.6 3.2 0.00 1.22 1.22 88 1010.0
20260904044004 13 155 0.0 1.6 0.00 1.22 1.22 88 1010.0
20260904043503 13 155 0.0 1.6 0.00 1.22 1.22 88 1009.9
20260904043004 13 155 0.0 3.2 0.00 1.22 1.22 88 1010.0
20260904042504 13 155 1.6 3.2 0.00 1.22 1.22 88 1009.9
20260904042004 13 152 3.2 4.8 0.00 1.22 1.22 88 1009.9
20260904041504 13 173 0.0 3.2 0.00 1.22 1.22 87 1010.0
20260904041004 13 152 1.6 3.2 0.00 1.22 1.22 87 1010.0
20260904040504 13 0 0.0 1.6 0.00 1.22 1.22 87 1010.0
20260904040004 13 0 0.0 1.6 0.00 1.22 1.22 87 1010.0
20260904035504 13 236 1.6 3.2 0.00 1.22 1.22 87 1009.9
20260904034504 13 212 0.0 3.2 0.00 1.22 1.22 87 1009.8
20260904034004 13 0 0.0 3.2 0.00 1.22 1.22 86 1009.7
20260904033504 13 212 0.0 3.2 0.00 1.22 1.22 86 1009.7
20260904033004 13 212 0.0 3.2 0.00 1.22 1.22 86 1009.6
20260904032004 14 332 1.6 3.2 0.00 1.22 1.22 85 1009.5
20260904031504 14 325 0.0 3.2 0.00 1.22 1.22 85 1009.6
20260904030004 14 358 1.6 1.6 0.00 1.22 1.22 84 1009.4
20260904025504 14 357 0.0 3.2 0.00 1.22 1.22 84 1009.4
20260904025004 14 358 1.6 3.2 0.00 1.22 1.22 83 1009.4
20260904024504 14 330 3.2 4.8 0.00 1.22 1.22 82 1009.4
20260904024004 15 353 3.2 3.2 0.00 1.22 1.22 81 1009.3
20260904023504 15 218 1.6 8.0 0.00 1.22 1.22 81 1009.3
20260904022503 15 326 1.6 4.8 0.00 1.22 1.22 79 1009.1
20260904022004 15 355 3.2 8.0 0.00 1.22 1.22 79 1009.2
20260904021504 15 194 4.8 8.0 0.00 1.22 1.22 79 1009.2
20260904021004 15 187 3.2 8.0 0.00 1.22 1.22 77 1009.2
20260904020504 15 346 4.8 9.7 0.00 1.22 1.22 77 1009.2
20260904020004 15 199 1.6 8.0 0.00 1.22 1.22 77 1009.2
20260904015504 15 0 1.6 8.0 0.00 1.22 1.22 77 1009.2
20260904015004 15 47 4.8 9.7 0.00 1.22 1.22 76 1009.3
20260904014503 15 194 4.8 9.7 0.00 1.22 1.22 76 1009.2
20260904014004 15 182 4.8 9.7 0.00 1.22 1.22 76 1009.3
20260904013504 15 169 4.8 12.9 0.00 1.22 1.22 75 1009.2
20260904013004 15 183 4.8 12.9 0.00 1.22 1.22 75 1009.2
20260904012504 16 181 9.7 16.1 0.00 1.22 1.22 75 1009.2
20260904012004 16 170 8.0 12.9 0.00 1.22 1.22 75 1009.2
20260904011505 16 152 8.0 14.5 0.00 1.22 1.22 74 1009.2
20260904010505 16 181 6.4 11.3 0.00 1.24 1.22 73 1009.1
20260904010006 16 215 3.2 11.3 0.00 1.24 1.22 72 1009.0
20260904005505 16 15 8.0 12.9 0.00 1.24 1.22 71 1009.1
20260904004505 16 210 9.7 14.5 0.00 1.24 1.22 71 1009.1
20260904003505 16 251 8.0 16.1 0.00 1.24 1.22 71 1009.2
20260904003005 17 132 11.3 19.3 0.00 1.24 1.22 71 1009.2
20260904002505 17 184 11.3 19.3 0.00 1.24 1.22 69 1009.2
20260904002005 17 171 11.3 20.9 0.00 1.24 1.22 69 1009.2
20260904001505 17 0 16.1 22.5 0.00 1.24 1.22 69 1009.2
20260904001006 17 200 12.9 22.5 0.00 1.24 1.22 68 1009.1
20260904000505 17 174 11.3 22.5 0.00 1.24 1.22 68 1009.1
20260903235505 17 195 8.0 20.9 0.00 1.24 1.22 67 1009.1
20260903234505 17 218 4.8 14.5 0.00 1.24 1.22 71 1009.1
20260903234005 17 189 12.9 19.3 0.00 1.24 1.22 70 1009.1
20260903233505 17 204 11.3 16.1 0.00 1.24 1.22 72 1009.0
20260903233005 17 188 11.3 19.3 0.00 1.24 1.22 72 1009.2
20260903232505 17 186 11.3 24.1 0.00 1.24 1.22 71 1009.2
20260903232006 17 169 12.9 24.1 0.00 1.24 1.22 73 1009.3
20260903231506 16 207 12.9 27.4 0.00 1.24 1.22 71 1009.3
20260903231005 16 200 11.3 24.1 0.00 1.24 1.22 73 1009.4
20260903230005 16 179 14.5 24.1 0.00 1.24 1.22 75 1009.4
20260903225505 16 161 9.7 16.1 0.00 1.24 1.22 77 1009.5
20260903225005 15 164 16.1 24.1 0.00 1.24 1.22 77 1009.5
20260903224505 15 204 8.0 24.1 0.00 1.24 1.22 78 1009.6
20260903224005 15 199 14.5 22.5 0.00 1.24 1.22 78 1009.6
20260903223505 15 163 19.3 29.0 0.00 1.24 1.22 77 1009.6
20260903223005 15 161 12.9 20.9 0.00 1.24 1.22 79 1009.6
20260903222505 15 164 12.9 22.5 0.00 1.24 1.22 77 1009.6
20260903222004 16 187 8.0 22.5 0.00 1.24 1.22 77 1009.5
20260903221505 16 17 9.7 25.7 0.00 1.24 1.22 76 1009.3
20260903221005 16 174 14.5 24.1 0.00 1.27 1.22 75 1009.4
20260903220006 16 195 8.0 19.3 0.00 1.27 1.22 77 1009.3
20260903215506 16 174 12.9 27.4 0.00 1.27 1.22 78 1009.3
20260903215005 15 175 14.5 22.5 0.00 1.27 1.22 79 1009.3
20260903214005 15 17 12.9 25.7 0.03 1.27 1.22 81 1009.3
20260903213505 16 147 9.7 22.5 0.03 1.27 1.22 83 1009.3
20260903213005 15 120 14.5 22.5 0.03 1.30 1.22 83 1009.5
20260903212005 15 157 11.3 24.1 0.03 1.30 1.22 85 1009.6
20260903211506 15 0 16.1 25.7 0.03 1.30 1.22 85 1009.6
20260903211006 15 158 12.9 25.7 0.03 1.30 1.22 86 1009.6
20260903210505 15 155 14.5 29.0 0.05 1.30 1.22 86 1009.5
20260903210006 14 176 11.3 20.9 0.05 1.32 1.22 87 1009.5
20260903205505 14 190 14.5 22.5 0.05 1.32 1.22 87 1009.5
20260903205005 14 4 11.3 25.7 0.08 1.32 1.22 87 1009.6
20260903204505 15 181 14.5 25.7 0.05 1.30 1.19 88 1009.6
20260903204006 15 169 14.5 29.0 0.25 1.30 1.19 88 1009.4
20260903203505 15 178 9.7 14.5 0.30 1.30 1.19 89 1009.5
20260903203005 14 146 9.7 19.3 0.33 1.32 1.19 89 1009.5
20260903202504 14 201 6.4 16.1 0.36 1.32 1.19 89 1009.5
20260903202006 14 178 11.3 20.9 0.36 1.32 1.19 89 1009.5
20260903201505 14 175 9.7 24.1 0.36 1.32 1.19 89 1009.6
20260903201005 14 185 12.9 22.5 0.36 1.35 1.19 89 1009.5
20260903200006 14 167 6.4 19.3 0.36 1.32 1.17 89 1009.4
20260903195505 14 165 11.3 22.5 0.36 1.35 1.17 88 1009.4
20260903195005 14 174 14.5 27.4 0.33 1.32 1.14 87 1009.4
20260903194505 14 336 14.5 24.1 0.33 1.32 1.14 87 1009.4
20260903194005 14 0 14.5 24.1 0.13 1.12 0.94 87 1009.4
20260903193505 15 148 8.0 16.1 0.10 1.07 0.89 87 1009.3
20260903192005 15 177 4.8 11.3 0.08 1.04 0.84 88 1009.5
20260903191505 14 188 6.4 12.9 0.08 1.04 0.84 88 1009.6
20260903191005 14 152 9.7 16.1 0.08 1.04 0.84 88 1009.6
20260903190505 13 196 9.7 14.5 0.05 1.02 0.81 88 1009.6
20260903185505 13 261 1.6 3.2 0.05 1.09 0.81 88 1009.7
20260903185005 13 254 1.6 4.8 0.05 1.14 0.81 88 1009.7
20260903184505 13 294 3.2 9.7 0.05 1.14 0.81 87 1009.8
20260903183006 14 0 8.0 14.5 0.03 1.17 0.79 85 1009.9
20260903182505 15 359 8.0 20.9 0.00 1.14 0.76 85 1009.9
20260903182005 15 203 11.3 20.9 0.00 1.14 0.76 84 1009.6
20260903181505 15 192 8.0 20.9 0.00 1.14 0.76 84 1009.5
20260903181004 15 158 16.1 22.5 0.00 1.14 0.76 84 1009.3
20260903180504 15 166 9.7 22.5 0.00 1.14 0.76 84 1009.3
20260903175505 15 163 17.7 27.4 0.03 1.17 0.76 84 1009.3
20260903175005 15 110 16.1 25.7 0.03 1.19 0.76 84 1009.3
20260903174505 15 118 4.8 14.5 0.03 1.19 0.76 85 1009.3
20260903174005 15 135 14.5 20.9 0.03 1.19 0.76 84 1009.3
20260903173505 15 3 8.0 16.1 0.03 1.22 0.76 86 1009.4
20260903173005 15 347 8.0 20.9 0.03 1.22 0.76 86 1009.4
20260903172504 15 169 9.7 16.1 0.03 1.22 0.76 87 1009.4
20260903171505 14 171 11.3 24.1 0.03 1.27 0.76 88 1009.5
20260903171005 14 164 8.0 20.9 0.03 1.27 0.76 88 1009.5
20260903170505 14 170 9.7 14.5 0.03 1.32 0.76 88 1009.6
20260903170005 14 185 9.7 16.1 0.03 1.35 0.76 89 1009.5
20260903165505 13 188 9.7 19.3 0.00 1.32 0.74 89 1009.5
20260903165005 13 175 8.0 24.1 0.00 1.35 0.74 89 1009.4
20260903164004 13 222 8.0 20.9 0.00 1.40 0.74 90 1009.6
20260903162505 13 189 11.3 19.3 0.00 1.42 0.74 90 1009.7
20260903162005 13 194 9.7 16.1 0.03 1.42 0.74 90 1009.8
20260903161505 13 194 9.7 16.1 0.03 1.42 0.74 90 1009.7
20260903161005 12 180 9.7 19.3 0.05 1.42 0.74 90 1009.8
20260903160505 12 194 9.7 24.1 0.08 1.42 0.74 90 1009.7
20260903160005 12 205 8.0 14.5 0.10 1.42 0.74 90 1009.6
20260903155504 12 190 9.7 19.3 0.13 1.42 0.74 90 1009.7
20260903154505 12 163 6.4 20.9 0.15 1.42 0.74 90 1009.6
20260903154005 12 176 6.4 16.1 0.15 1.42 0.74 90 1009.6
20260903153505 12 172 9.7 16.1 0.15 1.42 0.74 90 1009.6
20260903153005 12 184 8.0 14.5 0.18 1.42 0.74 90 1009.6
20260903152505 12 182 9.7 19.3 0.18 1.42 0.74 90 1009.6
20260903152005 12 170 9.7 16.1 0.18 1.40 0.71 90 1009.5
20260903150505 12 173 8.0 19.3 0.15 1.35 0.66 90 1009.5
20260903150005 12 156 8.0 19.3 0.13 1.32 0.64 90 1009.5
20260903145505 12 176 9.7 14.5 0.10 1.30 0.61 90 1009.3
20260903145005 12 166 8.0 14.5 0.10 1.30 0.61 90 1009.3
20260903144505 12 150 4.8 12.9 0.10 1.27 0.58 90 1009.3
20260903143505 12 160 8.0 12.9 0.13 1.27 0.58 90 1009.2
20260903143005 12 178 9.7 16.1 0.10 1.24 0.56 90 1009.1
20260903142505 12 189 8.0 12.9 0.13 1.24 0.56 90 1009.1
20260903142005 12 191 12.9 20.9 0.18 1.22 0.53 90 1009.1
20260903141505 12 175 12.9 25.7 0.23 1.22 0.53 90 1009.1
20260903141005 12 181 4.8 11.3 0.23 1.22 0.53 90 1009.1
20260903140505 12 189 4.8 11.3 0.20 1.19 0.51 90 1009.0
20260903140005 12 174 6.4 12.9 0.20 1.19 0.51 90 1009.0
20260903135505 12 185 6.4 16.1 0.20 1.19 0.51 90 1009.0
20260903134505 12 171 8.0 16.1 0.18 1.17 0.48 90 1009.0
20260903134005 12 152 4.8 16.1 0.15 1.14 0.46 90 1009.0
20260903133504 12 172 8.0 12.9 0.20 1.14 0.46 90 1008.8
20260903133005 12 168 8.0 11.3 0.28 1.14 0.46 90 1008.9
20260903132505 12 155 3.2 11.3 0.28 1.12 0.43 90 1008.9
20260903132006 12 177 4.8 14.5 0.20 1.04 0.36 90 1009.0
20260903131505 12 177 8.0 14.5 0.18 0.99 0.30 90 1008.9
20260903131005 12 188 9.7 16.1 0.18 0.99 0.30 90 1008.8
20260903130005 12 163 9.7 19.3 0.23 0.99 0.30 90 1008.7
20260903125504 12 165 4.8 11.3 0.23 0.99 0.30 90 1008.7
20260903125005 12 165 3.2 8.0 0.25 0.99 0.30 90 1008.7
20260903124505 12 137 4.8 8.0 0.25 0.99 0.30 90 1008.7
20260903124004 12 170 8.0 11.3 0.28 0.99 0.30 90 1008.8
20260903123505 12 172 8.0 12.9 0.23 0.94 0.25 90 1008.9
20260903123005 12 179 8.0 12.9 0.18 0.86 0.18 90 1009.0
20260903122505 13 160 9.7 16.1 0.15 0.84 0.15 90 1009.0
20260903122005 13 187 8.0 14.5 0.15 0.84 0.15 89 1009.0
20260903121505 13 176 4.8 12.9 0.13 0.81 0.13 89 1009.0
20260903121005 13 180 8.0 11.3 0.13 0.81 0.13 89 1008.9
20260903120504 13 162 4.8 9.7 0.10 0.79 0.10 89 1008.9
20260903120005 13 171 4.8 12.9 0.08 0.76 0.08 89 1008.9
20260903115504 13 166 6.4 12.9 0.08 0.76 0.08 89 1008.9
20260903114505 13 154 3.2 11.3 0.05 0.74 0.05 89 1008.9
20260903113504 13 174 8.0 16.1 0.03 0.71 0.03 88 1009.0
20260903112505 13 153 6.4 12.9 0.00 0.69 0.00 88 1008.9
20260903111505 13 167 8.0 16.1 0.00 0.69 0.00 88 1009.0
20260903111004 13 154 9.7 14.5 0.00 0.69 0.00 88 1008.9
20260903110504 13 170 8.0 19.3 0.00 0.69 0.00 88 1008.9
20260903110005 13 146 6.4 12.9 0.00 0.69 0.00 88 1008.8
20260903105505 13 155 8.0 14.5 0.00 0.69 0.00 88 1008.9
20260903104505 13 139 6.4 11.3 0.00 0.69 0.00 87 1008.8
20260903104005 13 149 6.4 14.5 0.00 0.69 0.00 87 1008.8
20260903103505 13 183 8.0 12.9 0.00 0.69 0.00 87 1008.8
20260903103004 13 176 4.8 16.1 0.00 0.69 0.00 87 1008.8
20260903102504 13 165 8.0 12.9 0.00 0.69 0.00 87 1008.9
20260903102005 13 192 11.3 20.9 0.00 0.69 0.00 87 1008.9
20260903101505 13 180 12.9 20.9 0.00 0.69 0.00 88 1008.9
20260903101005 13 160 4.8 11.3 0.00 0.69 0.00 88 1008.9
20260903100504 13 199 6.4 12.9 0.00 0.69 0.00 88 1008.9
20260903100004 13 163 4.8 14.5 0.00 0.69 0.00 88 1008.8
20260903095505 13 170 8.0 16.1 0.00 0.69 0.00 88 1008.8
20260903094505 13 165 9.7 16.1 0.00 0.69 0.00 88 1008.8
20260903094005 13 151 9.7 14.5 0.00 0.69 0.00 88 1008.8
20260903093504 13 185 9.7 14.5 0.00 0.69 0.00 88 1008.8
20260903093005 13 150 9.7 19.3 0.00 0.69 0.00 88 1008.8
20260903092505 13 168 8.0 16.1 0.00 0.69 0.00 88 1008.9
20260903092004 13 156 4.8 11.3 0.00 0.69 0.00 88 1009.0
20260903091005 13 167 4.8 12.9 0.00 0.69 0.00 88 1008.9
20260903090504 13 162 8.0 14.5 0.00 0.69 0.00 88 1009.0
20260903085504 13 156 9.7 16.1 0.00 0.69 0.00 88 1009.0
20260903085005 13 175 9.7 14.5 0.00 0.69 0.00 88 1009.1
20260903084505 13 170 8.0 19.3 0.00 0.69 0.00 88 1009.1
20260903084005 13 161 11.3 22.5 0.00 0.69 0.00 88 1009.1
20260903083505 13 184 8.0 19.3 0.00 0.69 0.00 88 1009.0
20260903082505 13 167 4.8 16.1 0.00 0.69 0.00 88 1009.1
20260903082004 13 184 4.8 19.3 0.00 0.69 0.00 88 1009.1
20260903081005 13 159 9.7 16.1 0.00 0.69 0.00 88 1009.1
20260903080504 13 177 9.7 16.1 0.00 0.69 0.00 88 1009.2
20260903075504 13 178 6.4 14.5 0.00 0.69 0.00 88 1009.2
20260903075005 13 177 4.8 16.1 0.00 0.69 0.00 88 1009.3
20260903074504 13 193 4.8 11.3 0.00 0.69 0.00 88 1009.3
20260903074004 13 165 8.0 14.5 0.00 0.69 0.00 88 1009.3
20260903073505 13 177 9.7 16.1 0.00 0.69 0.00 88 1009.3
20260903072005 13 173 9.7 16.1 0.00 0.69 0.00 88 1009.3
20260903071504 13 176 11.3 19.3 0.00 0.69 0.00 88 1009.2
20260903071005 13 168 4.8 12.9 0.00 0.69 0.00 88 1009.1
20260903070505 13 178 4.8 11.3 0.00 0.69 0.00 88 1009.1
20260903070005 13 164 3.2 8.0 0.00 0.69 0.00 88 1009.1
20260903065504 13 167 4.8 11.3 0.00 0.69 0.69 88 1009.2
20260903065005 13 191 4.8 12.9 0.00 0.69 0.69 88 1009.1
20260903064505 13 162 3.2 11.3 0.00 0.69 0.69 87 1009.0
20260903064004 13 201 3.2 11.3 0.00 0.69 0.69 87 1009.1
20260903062505 13 195 4.8 9.7 0.00 0.69 0.69 87 1009.1
20260903062005 13 177 6.4 9.7 0.00 0.69 0.69 87 1009.0
20260903061505 13 164 4.8 9.7 0.00 0.69 0.69 87 1009.0
20260903061004 13 183 4.8 8.0 0.00 0.69 0.69 87 1009.1
20260903060505 13 195 3.2 14.5 0.00 0.69 0.69 86 1009.2
20260903060004 13 200 4.8 11.3 0.00 0.69 0.69 86 1009.2
20260903055505 13 175 3.2 9.7 0.00 0.69 0.69 86 1009.3
20260903055005 13 198 4.8 12.9 0.00 0.69 0.69 86 1009.3
20260903054505 13 198 9.7 12.9 0.00 0.69 0.69 86 1009.3
20260903054005 13 189 4.8 11.3 0.00 0.69 0.69 86 1009.3
20260903053504 13 173 4.8 16.1 0.00 0.69 0.69 86 1009.2
20260903051005 13 184 4.8 9.7 0.00 0.69 0.69 85 1009.2
20260903050505 13 189 4.8 9.7 0.00 0.69 0.69 85 1009.1
20260903050005 13 202 3.2 14.5 0.00 0.69 0.69 85 1009.0